DW3733 Luzzi (cosenza) IT current weather conditions

sailwx.info

Wind from 090 at 0 knots gusting 2

Air temperature 9.4° C
Dewpoint 7.9° C

Last reported at 2015-Apr-24 23:43 UTC.
Time now 2015-Apr-25 00:33 UTC

Location: N 39°27' E 016°16'.
View on Google Maps.

See reports from other nearby stations

  
Tides and Currents Weather Stations Pressure Air Temp Water Temp Dewpoint Dewpoint Depression Visibility Wind Speed Wind Dir Waves Ship Positions
date/time (UTC)wind fromknots sea level pressurealtimeterstation pressurevisibilityair tempwater tempwave heightnotes
2015-Apr-24 23:43 090 0 gusting 2 9.4
2015-Apr-24 23:33 090 0 gusting 2 9.4
2015-Apr-24 23:23 090 1 gusting 2 10.0
2015-Apr-24 23:13 090 0 gusting 1 10.6
2015-Apr-24 23:03 090 10.6
2015-Apr-24 22:53 083 0 gusting 1 10.6
2015-Apr-24 22:43 025 0 gusting 1 10.6
2015-Apr-24 22:33 090 0 gusting 2 10.6
2015-Apr-24 22:23 11.1
2015-Apr-24 22:13 090 2 gusting 2 11.7
2015-Apr-24 22:03 11.7
2015-Apr-24 21:53 090 2 gusting 2 12.2
2015-Apr-24 21:43 090 0 gusting 2 13.3
2015-Apr-24 21:33 321 14.4
2015-Apr-24 21:23 078 15.0
2015-Apr-24 21:13 048 15.6
2015-Apr-24 21:03 180 1 gusting 4 15.6
2015-Apr-24 20:53 135 1 gusting 5 15.0
2015-Apr-24 20:43 129 0 gusting 5 15.0
2015-Apr-24 20:33 105 0 gusting 2 14.4
2015-Apr-24 20:23 110 0 gusting 2 14.4
2015-Apr-24 20:13 199 14.4
2015-Apr-24 20:03 045 0 gusting 1 14.4
2015-Apr-24 19:53 119 0 gusting 1 14.4
2015-Apr-24 19:43 090 0 gusting 1 15.6
2015-Apr-24 19:33 282 16.1
2015-Apr-24 19:23 212 0 gusting 1 16.7
2015-Apr-24 19:13 225 0 gusting 2 16.7
2015-Apr-24 19:03 225 1 gusting 2 16.7
2015-Apr-24 18:53 117 1 gusting 5 16.7
2015-Apr-24 18:43 133 2 gusting 5 16.1
2015-Apr-24 18:33 178 0 gusting 1 15.6
2015-Apr-24 18:23 090 2 gusting 2 16.1
2015-Apr-24 18:13 121 17.8
2015-Apr-24 18:03 180 0 gusting 2 17.8
2015-Apr-24 17:53 135 0 gusting 1 18.3
2015-Apr-24 17:43 124 0 gusting 5 18.3
2015-Apr-24 17:33 251 1 gusting 6 18.9
2015-Apr-24 17:23 198 2 gusting 7 19.4
2015-Apr-24 17:13 190 4 gusting 7 19.4
2015-Apr-24 17:03 180 3 gusting 7 19.4
2015-Apr-24 16:53 210 3 gusting 6 19.4
2015-Apr-24 16:43 241 4 gusting 8 19.4
2015-Apr-24 16:33 225 2 gusting 7 19.4
2015-Apr-24 16:23 242 2 gusting 6 19.4
2015-Apr-24 16:13 238 2 gusting 8 19.4
2015-Apr-24 16:03 225 4 gusting 8 19.4
2015-Apr-24 15:53 194 4 gusting 6 20.0
2015-Apr-24 15:43 230 5 gusting 11 20.0
2015-Apr-24 15:33 299 4 gusting 7 20.6
2015-Apr-24 15:23 225 4 gusting 8 21.1
2015-Apr-24 15:13 180 2 gusting 7 21.1
2015-Apr-24 15:03 211 3 gusting 8 21.7
2015-Apr-24 14:53 225 2 gusting 8 21.7
2015-Apr-24 14:43 318 4 gusting 8 21.7
2015-Apr-24 14:33 201 1 gusting 6 21.7
2015-Apr-24 14:23 291 2 gusting 7 21.7
2015-Apr-24 14:13 253 2 gusting 6 22.2
2015-Apr-24 14:03 180 2 gusting 4 22.2
2015-Apr-24 13:53 249 0 gusting 5 21.7
2015-Apr-24 13:43 149 1 gusting 5 21.7
2015-Apr-24 13:33 103 1 gusting 5 21.7
2015-Apr-24 13:23 225 2 gusting 6 21.7
2015-Apr-24 13:13 231 2 gusting 10 21.7
2015-Apr-24 13:03 261 5 gusting 11 21.7
2015-Apr-24 12:53 286 5 gusting 11 22.2
2015-Apr-24 12:43 250 5 gusting 11 22.8
2015-Apr-24 12:33 234 6 gusting 13 23.3
2015-Apr-24 12:23 180 3 gusting 8 23.9
2015-Apr-24 12:13 008 1 gusting 5 23.3
2015-Apr-24 12:03 225 1 gusting 2 22.8
2015-Apr-24 11:53 305 1 gusting 4 22.8
2015-Apr-24 11:43 126 1 gusting 4 22.2
2015-Apr-24 11:33 045 1 gusting 4 21.1
2015-Apr-24 11:23 035 0 gusting 4 21.1
2015-Apr-24 11:13 330 2 gusting 5 21.1
2015-Apr-24 11:03 330 1 gusting 5 20.6
2015-Apr-24 10:53 063 2 gusting 5 21.1
2015-Apr-24 10:43 354 2 gusting 6 20.6
2015-Apr-24 10:33 345 4 gusting 6 20.6
2015-Apr-24 10:23 005 2 gusting 4 21.1
2015-Apr-24 10:13 305 0 gusting 4 20.6
2015-Apr-24 10:03 270 0 gusting 2 20.0
2015-Apr-24 09:53 322 1 gusting 6 20.0
2015-Apr-24 09:43 349 0 gusting 2 19.4
2015-Apr-24 09:33 056 0 gusting 4 18.9
2015-Apr-24 09:23 143 0 gusting 2 18.3
2015-Apr-24 09:13 308 1 gusting 5 18.3
2015-Apr-24 09:03 18.3
2015-Apr-24 08:53 017 0 gusting 2 18.3
2015-Apr-24 08:43 036 0 gusting 2 17.8
2015-Apr-24 08:33 010 1 gusting 2 17.2
2015-Apr-24 08:23 077 1 gusting 2 17.2
2015-Apr-24 08:13 037 0 gusting 4 16.7
2015-Apr-24 08:03 045 1 gusting 4 16.7
2015-Apr-24 07:53 342 1 gusting 2 16.7
2015-Apr-24 07:43 271 2 gusting 4 16.7
2015-Apr-24 07:33 313 2 gusting 5 16.7
2015-Apr-24 07:23 120 0 gusting 2 16.1
2015-Apr-24 07:13 045 0 gusting 1 15.6
2015-Apr-24 07:03 155 0 gusting 2 15.6
2015-Apr-24 06:53 064 0 gusting 2 15.0
2015-Apr-24 06:43 135 0 gusting 2 15.0
2015-Apr-24 06:33 180 1 gusting 2 14.4
2015-Apr-24 06:23 234 14.4
2015-Apr-24 06:13 135 13.9
2015-Apr-24 06:03 090 13.9
2015-Apr-24 05:53 062 0 gusting 2 13.9
2015-Apr-24 05:43 076 0 gusting 1 14.4
2015-Apr-24 05:33 315 0 gusting 2 14.4
2015-Apr-24 05:23 355 0 gusting 2 13.9
2015-Apr-24 05:13 038 0 gusting 2 13.9
2015-Apr-24 05:03 070 0 gusting 4 13.9
2015-Apr-24 04:53 13.9
2015-Apr-24 04:43 077 13.9
2015-Apr-24 04:33 346 1 gusting 2 14.4
2015-Apr-24 04:13 225 14.4
2015-Apr-24 04:03 257 0 gusting 2 14.4
2015-Apr-24 03:53 238 0 gusting 2 14.4
2015-Apr-24 03:43 240 0 gusting 2 14.4
2015-Apr-24 03:33 095 0 gusting 1 15.0
2015-Apr-24 03:23 316 0 gusting 2 15.0
2015-Apr-24 03:13 299 15.0
2015-Apr-24 03:03 225 0 gusting 2 14.4
2015-Apr-24 02:53 006 1 gusting 8 15.0
2015-Apr-24 02:43 045 4 gusting 6 15.6
2015-Apr-24 02:33 15.6
2015-Apr-24 02:23 15.6
2015-Apr-24 02:13 063 0 gusting 2 15.6
2015-Apr-24 02:03 135 0 gusting 5 15.0
2015-Apr-24 01:53 128 3 gusting 6 15.0
2015-Apr-24 01:43 077 1 gusting 2 15.6
2015-Apr-24 01:33 045 0 gusting 1 15.6
2015-Apr-24 01:23 068 0 gusting 1 15.6
2015-Apr-24 01:13 111 0 gusting 5 15.6
2015-Apr-24 01:03 225 2 gusting 5 14.4
2015-Apr-24 00:53 148 0 gusting 4 14.4
2015-Apr-24 00:43 090 0 gusting 2 15.6
2015-Apr-24 00:33 293 0 gusting 2 15.6
2015-Apr-24 00:23 208 0 gusting 1 15.6
2015-Apr-24 00:13 045 15.6
2015-Apr-24 00:03 135 0 gusting 1 16.1
2015-Apr-23 23:43 053 2 gusting 5 15.6
2015-Apr-23 23:33 052 2 gusting 5 16.7
2015-Apr-23 23:23 023 0 gusting 1 16.1
2015-Apr-23 23:13 090 0 gusting 5 16.7
2015-Apr-23 23:03 045 2 gusting 5 17.2
2015-Apr-23 22:53 349 0 gusting 1 17.2
2015-Apr-23 22:43 045 17.2
2015-Apr-23 22:33 218 0 gusting 2 17.2
2015-Apr-23 22:23 033 2 gusting 6 17.2
2015-Apr-23 22:13 135 1 gusting 2 17.2
2015-Apr-23 22:03 135 1 gusting 2 17.2
2015-Apr-23 21:53 130 1 gusting 2 17.2
2015-Apr-23 21:43 302 0 gusting 5 17.2
2015-Apr-23 21:33 241 1 gusting 5 17.2
2015-Apr-23 21:23 090 17.2
2015-Apr-23 21:13 138 0 gusting 2 16.7
2015-Apr-23 21:03 135 0 gusting 2 16.7
2015-Apr-23 20:53 125 0 gusting 2 17.2
2015-Apr-23 20:43 225 0 gusting 2 16.7
2015-Apr-23 20:33 135 0 gusting 0 17.2
2015-Apr-23 20:13 135 1 gusting 5 17.2
2015-Apr-23 20:03 202 1 gusting 2 16.1
2015-Apr-23 19:53 180 0 gusting 2 15.6
2015-Apr-23 19:43 151 0 gusting 2 15.0
2015-Apr-23 19:33 122 0 gusting 4 15.6
2015-Apr-23 19:23 100 1 gusting 2 15.0
2015-Apr-23 19:13 090 1 gusting 2 14.4
2015-Apr-23 19:03 090 0 gusting 1 15.0
2015-Apr-23 18:53 121 0 gusting 2 15.6
2015-Apr-23 18:43 090 15.6
2015-Apr-23 18:33 103 0 gusting 2 15.6
2015-Apr-23 18:23 087 0 gusting 2 16.1
2015-Apr-23 18:13 090 0 gusting 2 16.7
2015-Apr-23 18:03 090 0 gusting 2 17.8
2015-Apr-23 17:53 079 0 gusting 1 18.3
2015-Apr-23 17:43 167 18.3
2015-Apr-23 17:33 090 0 gusting 2 18.9
2015-Apr-23 17:23 131 0 gusting 1 19.4
2015-Apr-23 17:13 104 0 gusting 1 20.6
2015-Apr-23 17:03 180 0 gusting 2 21.7
2015-Apr-23 16:53 241 1 gusting 5 21.7
2015-Apr-23 16:43 255 1 gusting 6 22.2
2015-Apr-23 16:33 278 3 gusting 7 22.8
2015-Apr-23 16:23 139 3 gusting 7 22.8
2015-Apr-23 16:13 220 4 gusting 6 23.3
2015-Apr-23 16:03 225 2 gusting 6 23.3
2015-Apr-23 15:53 288 1 gusting 7 23.3
2015-Apr-23 15:43 275 2 gusting 6 23.3
2015-Apr-23 15:33 233 2 gusting 6 23.9
2015-Apr-23 15:23 196 2 gusting 8 23.9
2015-Apr-23 15:13 231 3 gusting 8 24.4
2015-Apr-23 15:03 203 4 gusting 8 24.4
2015-Apr-23 14:53 270 4 gusting 13 25.0
2015-Apr-23 14:43 180 2 gusting 10 25.0
2015-Apr-23 14:33 193 4 gusting 8 25.0
2015-Apr-23 14:23 210 3 gusting 8 25.6
2015-Apr-23 14:13 189 4 gusting 6 25.6
2015-Apr-23 14:03 135 2 gusting 8 25.6
2015-Apr-23 13:53 225 4 gusting 8 25.6
2015-Apr-23 13:43 166 4 gusting 6 25.6
2015-Apr-23 13:33 255 4 gusting 10 25.6
2015-Apr-23 13:23 228 3 gusting 12 26.1
2015-Apr-23 13:13 315 2 gusting 6 26.1
2015-Apr-23 13:03 145 2 gusting 6 26.1
2015-Apr-23 12:53 266 1 gusting 6 25.6
2015-Apr-23 12:43 344 2 gusting 6 25.6
2015-Apr-23 12:33 017 2 gusting 6 25.6
2015-Apr-23 12:23 227 2 gusting 6 26.1
2015-Apr-23 12:13 074 1 gusting 4 25.6
2015-Apr-23 12:03 338 2 gusting 5 25.6
2015-Apr-23 11:53 020 1 gusting 6 25.6
2015-Apr-23 11:43 332 4 gusting 6 25.6
2015-Apr-23 11:33 25.6
2015-Apr-23 11:23 324 1 gusting 5 25.0
2015-Apr-23 11:13 045 2 gusting 6 25.0
2015-Apr-23 11:03 016 2 gusting 6 24.4
2015-Apr-23 10:53 112 1 gusting 6 25.0
2015-Apr-23 10:43 24.4
2015-Apr-23 10:33 052 3 gusting 6 25.0
2015-Apr-23 10:23 188 0 gusting 4 24.4
2015-Apr-23 10:13 358 0 gusting 2 24.4
2015-Apr-23 10:03 045 0 gusting 4 23.9
2015-Apr-23 09:53 070 1 gusting 2 23.9
2015-Apr-23 09:43 341 0 gusting 1 23.9
2015-Apr-23 09:33 022 0 gusting 2 23.3
2015-Apr-23 09:23 035 0 gusting 2 23.3
2015-Apr-23 09:13 090 22.8
2015-Apr-23 09:03 129 0 gusting 2 22.2
2015-Apr-23 08:53 315 0 gusting 4 22.2
2015-Apr-23 08:43 252 0 gusting 4 22.2
2015-Apr-23 08:33 315 21.1
2015-Apr-23 08:23 113 0 gusting 2 20.6
2015-Apr-23 08:13 180 0 gusting 2 20.6
2015-Apr-23 08:03 180 0 gusting 2 20.0
2015-Apr-23 07:53 234 0 gusting 2 19.4
2015-Apr-23 07:43 213 1 gusting 4 18.9
2015-Apr-23 07:33 165 0 gusting 4 18.3
2015-Apr-23 07:23 224 1 gusting 2 16.7
2015-Apr-23 07:13 049 0 gusting 2 16.1
2015-Apr-23 07:03 090 0 gusting 1 15.6
2015-Apr-23 06:53 090 15.6
2015-Apr-23 06:43 209 15.6
2015-Apr-23 06:33 121 0 gusting 2 15.6
2015-Apr-23 06:23 090 0 gusting 1 14.4
2015-Apr-23 06:13 045 0 gusting 1 13.3
2015-Apr-23 06:03 090 0 gusting 1 12.2
2015-Apr-23 05:53 090 0 gusting 4 11.7
2015-Apr-23 05:43 158 1 gusting 4 11.7
2015-Apr-23 05:33 135 1 gusting 4 11.1
2015-Apr-23 05:23 150 10.6
2015-Apr-23 05:13 090 0 gusting 1 10.0
2015-Apr-23 05:03 161 9.4
2015-Apr-23 04:53 090 0 gusting 2 8.9
2015-Apr-23 04:43 045 0 gusting 2 8.9
2015-Apr-23 04:33 090 1 gusting 2 8.9
2015-Apr-23 04:23 047 0 gusting 2 8.3
2015-Apr-23 04:13 090 1 gusting 2 8.9
2015-Apr-23 04:03 8.3
2015-Apr-23 03:53 090 2 gusting 2 8.3
2015-Apr-23 03:43 071 1 gusting 2 8.3
2015-Apr-23 03:33 028 1 gusting 2 8.3
2015-Apr-23 03:23 075 8.3
2015-Apr-23 03:13 082 1 gusting 2 8.3
2015-Apr-23 03:03 8.3
2015-Apr-23 02:53 090 0 gusting 2 8.3
2015-Apr-23 02:43 045 0 gusting 2 7.8
2015-Apr-23 02:33 090 1 gusting 2 8.3
2015-Apr-23 02:23 046 0 gusting 2 8.3
2015-Apr-23 02:13 090 1 gusting 4 8.3
2015-Apr-23 02:03 090 8.9
2015-Apr-23 01:53 090 1 gusting 2 8.9
2015-Apr-23 01:43 090 1 gusting 2 8.9
2015-Apr-23 01:33 080 1 gusting 2 8.9
2015-Apr-23 01:23 090 2 gusting 2 8.3
2015-Apr-23 01:13 045 0 gusting 2 8.9
2015-Apr-23 01:03 078 0 gusting 2 8.3
2015-Apr-23 00:53 090 2 gusting 2 8.3
2015-Apr-23 00:43 090 1 gusting 2 8.3
2015-Apr-23 00:33 061 0 gusting 2 8.9
2015-Apr-23 00:23 085 0 gusting 2 9.4
2015-Apr-23 00:13 045 0 gusting 2 9.4
2015-Apr-23 00:03 090 0 gusting 2 10.0